576  
ASUS44 KEWX 211210  
RWREWX  
SOUTH TEXAS REGIONAL WEATHER ROUNDUP  
NATIONAL WEATHER SERVICE AUSTIN/SAN ANTONIO TX  
700 AM CDT SUN OCT 21 2018  
 
NOTE: "FAIR" INDICATED FEW OR NO CLOUDS BELOW 12,000 FEET WITH NO  
SIGNIFICANT WEATHER AND/OR S TO VISIBILITY
.  
 
* - THESE STATIONS ARE NOT NWS OR FAA STATIONS...AND ARE NOT SUBJECT  
TO NWS AND FAA QUALITY CONTROL.
 
 
TXZ171-172-183>190-211300-  
TEXAS HILL COUNTRY AND EDWARDS PLATEAU  
 
CITY SKY/WX TMP DP RH WIND PRES REMARKS
 
JUNCTION NOT AVBL  
*LLANO CLEAR 46 45 93 CALM 30.35S  
BURNET CLEAR 53 44 71 NE10 30.32R  
6HR MIN TEMP: 53; 6HR MAX TEMP: 58;  
 
*HORSESHOE BAY CLEAR 53 47 78 CALM 30.31S  
6HR MIN TEMP: 53; 6HR MAX TEMP: 61;  
 
*KERRVILLE CLOUDY 56 46 69 CALM 30.30R  
6HR MIN TEMP: 56; 6HR MAX TEMP: 61;  
 
*FREDERICKSBRG CLEAR 52 44 74 CALM 30.31R  
6HR MIN TEMP: 52; 6HR MAX TEMP: 58;  
 
*ROCKSPRINGS PTCLDY 54 46 76 NE9 30.34S  
*BOERNE STAGE PTCLDY 54 45 71 NE6 30.29R  
*CASTROVILLE PTCLDY 60 47 62 NE6 30.27R  
HONDO CLOUDY 59 50 72 N8 30.26R  
6HR MIN TEMP: 59; 6HR MAX TEMP: 67;  
 
*UVALDE CLOUDY 59 52 77 CALM 30.28R  
6HR MIN TEMP: 59; 6HR MAX TEMP: 63;  
 
DEL RIO CLOUDY 61 55 81 N5 30.29R  
6HR MIN TEMP: 61; 6HR MAX TEMP: 64;  
 
LAUGHLIN AFB CLOUDY N/A N/A N/A N6 30.31R  
CARRIZO SPRGS CLOUDY 63 54 72 N3 30.25R  
*EAGLE PASS CLOUDY 57 50 77 N6 30.29R  
*FAITH RANCH CLOUDY 64 57 77 N8 30.26R  

 
 
TXZ173-191>194-202-209-217>225-228-211300-  
CENTRAL AND SOUTH CENTRAL TEXAS  
 
CITY SKY/WX TMP DP RH WIND PRES REMARKS
 
GEORGETOWN PTCLDY 53 47 79 N7 30.31S  
6HR MIN TEMP: 53; 6HR MAX TEMP: 60;  
 
AUSTIN/BERGSTM MOCLDY 58 49 72 N10 30.27R  
6HR MIN TEMP: 58; 6HR MAX TEMP: 64;  
 
AUSTIN/MABRY PTCLDY 58 46 64 VRB7 30.28S  
6HR MIN TEMP: 58; 6HR MAX TEMP: 63;  
 
*LAGO VISTA PTCLDY 53 49 87 NE10 30.29R  
6HR MIN TEMP: 53; 6HR MAX TEMP: 60;  
 
SAN MARCOS MOCLDY 57 49 74 N14 N/A  
6HR MIN TEMP: 57; 6HR MAX TEMP: 62;  
 
NEW BRAUNFELS PTCLDY 58 48 69 NE15 30.24R  
6HR MIN TEMP: 58; 6HR MAX TEMP: 63;  
 
RANDOLPH AFB PTCLDY 59 48 66 N12 30.24R  
6HR MIN TEMP: 59; 6HR MAX TEMP: 64;  
 
PT SAN ANTONIO PTCLDY 59 50 70 NE10 30.22S  
6HR MIN TEMP: 59; 6HR MAX TEMP: 65;  
 
SAN ANTONIO MOCLDY 58 48 69 N9 30.26R  
6HR MIN TEMP: 58; 6HR MAX TEMP: 64;  
 
STINSON FIELD MOCLDY 63 47 55 NE9 30.23R  
6HR MIN TEMP: 62; 6HR MAX TEMP: 67;  
 
*LA GRANGE CLOUDY 58 53 83 N6 30.24R  
6HR MIN TEMP: 58; 6HR MAX TEMP: 62;  
 
*GIDDINGS CLOUDY 54 49 82 NE3 30.27S  
6HR MIN TEMP: 54; 6HR MAX TEMP: 57;  
 
*GONZALES CLOUDY 57 53 85 N7 30.24R  
6HR MIN TEMP: 57; 6HR MAX TEMP: 62;  
 

 
 
TXZ163>164-176>182-195>201-210>213-226-227-235-211300-  
SOUTHEAST TEXAS  
 
CITY SKY/WX TMP DP RH WIND PRES REMARKS
 
COLLEGE STN CLOUDY 55 50 83 N8 30.27R  
6HR MIN TEMP: 55; 6HR MAX TEMP: 62;  
 
*BRYAN CLOUDY 53 51 93 N6 30.29R  
6HR MIN TEMP: 53; 6HR MAX TEMP: 60;  
 
*CALDWELL CLOUDY 54 49 86 N9 30.28S  
6HR MIN TEMP: 53; 6HR MAX TEMP: 60;  
 
*CROCKETT N/A 52 48 87 NE7 30.31R  
*BRENHAM CLOUDY 56 52 86 NE5 30.27R  
6HR MIN TEMP: 56; 6HR MAX TEMP: 61;  
 
HUNTSVILLE PTCLDY 54 51 90 CALM 30.27R  
6HR MIN TEMP: 53; 6HR MAX TEMP: 60;  
 
CONROE PTCLDY 56 54 93 N3 30.26R  
6HR MIN TEMP: 56; 6HR MAX TEMP: 61;  
 
HOUSTON BUSH CLOUDY 59 55 87 N8 30.23R  
6HR MIN TEMP: 59; 6HR MAX TEMP: 64;  
 
HOUSTON HOBBY FAIR 62 52 69 NE13G22 30.22R  
6HR MIN TEMP: 62; 6HR MAX TEMP: 66;  
 
*HOUSTON SW AP FAIR 60 55 85 NE8 30.22R  
6HR MIN TEMP: 60; 6HR MAX TEMP: 64;  
 
PEARLAND FAIR 62 54 74 NE8 30.23R  
6HR MIN TEMP: 62; 6HR MAX TEMP: 66;  
 
HOUSTON HOOKS FAIR 58 55 90 N7 30.24R  
6HR MIN TEMP: 58; 6HR MAX TEMP: 63;  
 
ELLINGTON FLD NOT AVBL  
SUGAR LAND FAIR 63 53 70 NE10 30.22R  
6HR MIN TEMP: 62; 6HR MAX TEMP: 67;  
 
*HOUSTON EXEC FAIR 57 55 94 N7 30.25R  
*CLEVELAND MUN FAIR 55 52 90 N3 30.26R  
6HR MIN TEMP: 55; 6HR MAX TEMP: 61;  
 
*WHARTON CLEAR 59 56 90 NE8 30.21S  
6HR MIN TEMP: 59; 6HR MAX TEMP: 64;  
 
*COLUMBUS FAIR 60 52 75 N7 30.24R  
6HR MIN TEMP: 60; 6HR MAX TEMP: 62;  
 
*EAGLE LAKE CLOUDY 59 57 94 N9 30.23R  
6HR MIN TEMP: 59; 6HR MAX TEMP: 63;  
 

 
 
TXZ214>216-236>238-211300-  
THE UPPER TEXAS COAST  
 
CITY SKY/WX TMP DP RH WIND PRES REMARKS
 
*ORANGE FAIR 58 56 94 NE7 30.23R  
6HR MIN TEMP: 58; 6HR MAX TEMP: 64;  
 
PORT ARTHUR FAIR 60 53 77 N13 30.20R  
6HR MIN TEMP: 60; 6HR MAX TEMP: 66;  
 
GALVESTON CLOUDY 65 57 75 NE18G31 30.19R  
6HR MIN TEMP: 65; 6HR MAX TEMP: 68;  
 
ANGLETON CLOUDY 64 55 72 NE12 30.19R  
6HR MIN TEMP: 64; 6HR MAX TEMP: 66;  
 
*BAY CITY MOCLDY 63 59 86 NE8 30.19R  
PALACIOS CLOUDY 64 61 90 NE13 30.18R  
6HR MIN TEMP: 64; 6HR MAX TEMP: 66;  
 

 
 
TXZ229>234-239>247-211300-  
TEXAS COASTAL BEND AND RIO GRANDE PLAINS  
 
CITY SKY/WX TMP DP RH WIND PRES REMARKS
 
VICTORIA CLEAR 62 57 83 NE14 30.20R  
6HR MIN TEMP: 62; 6HR MAX TEMP: 65;  
 
*BEEVILLE CLOUDY 63 58 84 NE9G17 30.19R  
6HR MIN TEMP: 63; 6HR MAX TEMP: 64;  
 
ROCKPORT CLOUDY 64 59 83 N16 30.16R  
6HR MIN TEMP: 64; 6HR MAX TEMP: 66;  
 
*PORT ARANSAS CLOUDY 65 61 85 N17 30.17R  
6HR MIN TEMP: 65; 6HR MAX TEMP: 66;  
 
*PORT LAVACA NOT AVBL  
*INGLESIDE CLOUDY 66 60 80 NE14G22 30.16R  
CORPUS CHRISTI CLOUDY 65 59 81 NE16G25 30.16R  
6HR MIN TEMP: 64; 6HR MAX TEMP: 65; 6HR PCP: TRACE;  
 
CORPUS NAS CLOUDY 68 63 84 NE21G28 30.15R  
6HR MIN TEMP: 67; 6HR MAX TEMP: 69;  
 
*ROBSTOWN CLOUDY 64 58 80 NE10 30.17R  
6HR MIN TEMP: 64; 6HR MAX TEMP: 65;  
 
ALICE CLOUDY 64 59 83 N12 30.17R  
6HR MIN TEMP: 63; 6HR MAX TEMP: 64;  
 
KINGSVILLE NAS CLOUDY 66 61 84 N13 30.16R  
6HR MIN TEMP: 64; 6HR MAX TEMP: 66;  
 
COTULLA CLOUDY 63 56 78 NE7 30.23R  
6HR MIN TEMP: 63; 6HR MAX TEMP: 65;  
 
LAREDO CLOUDY 65 59 81 N10 30.21R  
6HR MIN TEMP: 65; 6HR MAX TEMP: 66;  
 

 
 
TXZ248>255-211300-  
DEEP SOUTH TEXAS  
 
CITY SKY/WX TMP DP RH WIND PRES REMARKS
 
BROWNSVILLE LGT RAIN 69 69 100 NW13 30.09R  
6HR MIN TEMP: 69; 6HR MAX TEMP: 71; 6HR PCP: TRACE;  
 
PORT ISABEL CLOUDY 69 66 90 N18G24 30.08R  
6HR MIN TEMP: 69; 6HR MAX TEMP: 70; 6HR PCP: 0.01;  
 
HARLINGEN CLOUDY 66 64 93 N14 30.11R  
6HR MIN TEMP: 66; 6HR MAX TEMP: 68; 6HR PCP: TRACE;  
 
*HEBBRONV  
 
CLICK HERE TO GO TO PREVIOUS BULLETINS.

The Nexlab TX Page Main Text Page